Location: Plainartige
(45.6866°N, 1.7993°E)
Time: 01:45:25
(UTC+00:00)

PicSat - Visible Passes

Search period start: 29 June 2022 00:00
Search period end: 09 July 2022 00:00
Orbit: 453 x 459 km, 97.4° (Epoch: 28 June)

Date Brightness Start Highest point End Pass type
(mag) Time Alt. Az. Time Alt. Az. Time Alt. Az.
29 Jun ? 22:17:56 45° S 22:18:51 72° WSW 22:22:18 10° NNW visible
30 Jun ? 21:44:23 27° ESE 21:45:41 40° ENE 21:48:56 10° N visible
30 Jun ? 23:18:09 13° WSW 23:18:45 13° W 23:20:26 10° WNW visible
01 Jul ? 21:10:49 12° ESE 21:12:38 17° ENE 21:14:57 10° NNE visible
01 Jul ? 22:44:34 29° WSW 22:45:16 32° W 22:48:25 10° NNW visible
02 Jul ? 22:10:59 46° SSE 22:11:56 89° WNW 22:15:23 10° NNW visible
03 Jul ? 21:37:21 24° ESE 21:38:43 33° ENE 21:41:50 10° N visible
03 Jul ? 23:11:07 15° WSW 23:11:41 16° W 23:13:52 10° NW visible
04 Jul ? 21:03:43 10° E 21:05:38 14° ENE 21:07:33 10° NNE visible
04 Jul ? 22:37:28 35° SW 22:38:10 39° W 22:41:26 10° NNW visible
05 Jul ? 22:03:48 43° SSE 22:04:47 72° ENE 22:08:13 10° N visible
06 Jul ? 21:30:07 20° ESE 21:31:31 27° ENE 21:34:29 10° N visible
06 Jul ? 23:03:52 19° WSW 23:04:23 19° W 23:06:57 10° NW visible
07 Jul ? 20:57:02 10° E 20:58:24 12° ENE 20:59:45 10° NE visible
07 Jul ? 22:30:09 42° SW 22:30:49 49° W 22:34:12 10° NNW visible
08 Jul ? 21:56:25 39° SE 21:57:24 57° ENE 22:00:48 10° N visible
